TITAN 3C TRANSTAGE DEB, 38703

Orbit data source: Space-Track

TITAN 3C TRANSTAGE DEB, 38703 is space debris in GEO originally from a launch on Thu, 26 Sep 1968 UTC launched from the Air Force Eastern Test Range (AFETR). Debris objects in space refer to the collection of defunct objects orbiting the Earth. Examples of debris include non-operational satellites, rocket bodies, and fragments generated from explosions, collisions, or faulty payload assembly.

Loading next visibility...
Identifier
38703, 1968-081AD
Orbit
GEO
Country
Flag of USUS
Related business
Manufacturer
Unknown
Mission
Spacecraft
Bus & Motor
Unknown
Mass
Unknown
Launch date (UTC)
1968-09-26 (57 years ago)
Launch vehicle
Unknown
Launch site
Air Force Eastern Test Range (AFETR)
Object type
Payload
Rocket body
Debris
Shape & HBR
Unknown shape, 1.1 m
Radar Cross Section
Small (<0.1 m²)

Expand to show TLE details & history
Last TLE update: 2 days ago

TLE from 2 days ago
0 TITAN 3C TRANSTAGE DEB
1 38703U 68081AD  25305.52232640 -.00000091  00000-0  00000+0 0  9993
2 38703   2.3151  81.6030 0241369  64.3045 298.3143  1.05421118 45068
Epoch: 2025-11-01T12:32Z
TLE epoch observation values (Epoch: 2025-11-01T12:32:09.000Z)
Latitude
-0°
Longitude
-147.37096°
Altitude
33,958.548 km
Speed
3.161 km/s
True Right ascension
05h 26m 52s
True Declination
0° 00' 00"
Sunlit
Object was in daylight at epoch
Visualization orbit readout
Latitude
Unknown
Longitude
Unknown
Altitude
Unknown
Speed
Unknown
Apparent Right ascension
Unknown
Apparent Declination
Unknown
Sunlit
N/A
Visualization observer readout
Local Sidereal Time
23:56:46
Azimuth
Unknown
Elevation
Unknown
Doppler factor
Unknown
Orbital elements
Apogee altitude
35,387.572 km
Perigee altitude
33,418.9 km
Semi-major axis
40,781.373 km
Eccentricity
0.02414
Inclination
2.3151°
RAAN
81.603°
Arg. of periapsis
64.3045°
True anomaly
295.84476°
Mean anomaly
298.3143°
Eccentric anomaly
297.083°
Mean motion
0.26354 °/min
Orbital period
1,366 mins
BSTAR
0
Loading maneuver chart data...
Computing Atmospheric mass density...

Documentation

Showing up to 5 results
|